Retour au catalogue

CZ-6A DEB

ActifPO
NORAD 61838·DEBRIS·🇨🇳 China

Lancé Aug 6, 2024 depuis Taiyuan Satellite Launch Center

Loading…

Prochains Passages (prochaines 24 heures)

TLE

FraisSource: Space-Track

Époque: Sep 12, 2026, 00:03 UTC

1 61838U 24140ADE 26255.00246197  .00006799  00000-0  11171-2 0  9990
2 61838  88.9447 254.2479 0068202 302.2350  57.2268 14.68980966105614

Suivez CZ-6A DEB en temps réel avec AllMySat

Download on the App Store